Погода в Старомарьевке

Россия / Ставропольский край     45°05′27″N   42°13′18″E
темп.,
°C
ветер,
м/с
пор.,
м/с
влажн.,
%
обл.,
%
осадки,
мм/ч
давл.,
гПа
погр.,
м
17 мая, пн
пн1700:00+16юв4135344 0.0 1004267
03:00+14юв225854 0.0 100424
06:00+15ю11679 0.0 100535
09:00+22юз23625 0.0 1005464
12:00+24с546190 0.0 10061099
15:00+24сз556178 0.0 10071254
18:00+20зсз4979100 0.2 1007333
21:00+16з51191100 3.9 1009328
18 мая, вт
вт1800:00+15з71393100 2.6 1009517
03:00+14зсз71394100 4.8 1009527
06:00+13з51095100 0.8 1010503
09:00+14з4895100 5.7 1011546
12:00+18зсз6770100 0.3 10111016
15:00+20зсз566487 0.3 10111275
18:00+19сз247343 0.0 1011543
21:00+15юз118510 0.0 101211
19 мая, ср
ср1900:00+14ююз11865 0.0 101211
03:00+13ююз228542 0.0 101111
06:00+14з2286100 0.3 101153
09:00+14зсз61194100 1.9 1014575
12:00+13сз4109288 4.4 1015542
15:00+17з567199 4.7 10151015
18:00+16зсз47741 0.8 1016664
21:00+12зюз22850 0.8 101815
20 мая, чт
чт2000:00+10юз22820 0.0 101817
03:00+9зюз35790 0.0 101975
06:00+11ююз22800 0.0 102049
09:00+17ююз22550 0.0 1019877
12:00+21ссз01422 0.0 10181409
15:00+21всв22435 0.0 10181526
18:00+19св346612 0.0 1017139
21:00+15в22780 0.0 101824
21 мая, пт
пт2100:00+13вюв35800 0.0 101793
03:00+12в35822 0.0 101792
06:00+14вюв516784 0.0 1016419
09:00+19вюв813605 0.0 1016673
12:00+22вюв911540 0.0 1016882
15:00+24вюв810567 0.0 10151002
18:00+22вюв713635 0.0 1015630
21:00+19вюв817590 0.0 1015558